Regional Weather Roundup
Issued by NWS

Home | Current Version | Previous Version | Graphics & Text | Print | Product List | Glossary On
Versions: 1 2 3 4 5 6 7 8 9 10 11 12 13 14 15 16 17 18 19 20 21 22 23 24 25 26 27 28 29 30 31 32 33 34 35 36 37 38 39 40 41 42 43 44 45 46 47 48 49 50
000
ASUS45 KBOU 040610
RWRCO

WEATHER ROUNDUP FOR COLORADO
NATIONAL WEATHER SERVICE DENVER/BOULDER CO
1200 AM MDT SAT JUL 04 2015

NOTE: "FAIR" INDICATES FEW OR NO CLOUDS BELOW 12000 FEET WITH NO
SIGNIFICANT WEATHER AND/OR OBSTRUCTIONS TO VISIBILITY.

COZ001>005-013-030-031-040700-
...NORTHWEST COLORADO...

CITY           SKY/WX    TMP DP  RH WIND       PRES   REMARKS
CRAIG          CLEAR     62  45  53 CALM      30.09S
HAYDEN         CLEAR     63  39  42 E9        30.12R
MEEKER         PTCLDY    64  48  56 NE5       30.12F
MOUNT WERNER   NOT AVBL
STEAMBOAT SPGS CLEAR     60  41  49 CALM      30.16R
WALDEN         CLEAR     55  43  62 CALM      30.25F
$$

COZ006>008-011-040700-
...WEST CENTRAL VALLEYS...

CITY           SKY/WX    TMP DP  RH WIND       PRES   REMARKS
GRAND JUNCTION PTCLDY    78  49  35 SE16      29.98R
MONTROSE       CLEAR     68  48  48 SE6       30.11S
EAGLE          MOCLDY    66  48  52 NE5       30.18R
RIFLE          NOT AVBL
DELTA          CLEAR     71  55  56 E5        30.07R
NUCLA          CLEAR     66  50  55 E12       30.17F
$$

COZ017>023-064>068-040700-
...SOUTHWEST COLORADO...

CITY           SKY/WX    TMP DP  RH WIND       PRES   REMARKS
DURANGO        MOCLDY    57  49  74 E5        30.23S
CORTEZ         CLEAR     66  51  58 CALM      30.16R
PAGOSA SPRINGS MOCLDY    57  49  75 NE5       30.31S
TELLURIDE      PTCLDY    54  47  76 SE5       30.42F
WOLF CREEK PAS NOT AVBL
$$

COZ009-010-012-014-032>034-037-058>063-040700-
...CENTRAL COLORADO...

CITY           SKY/WX    TMP DP  RH WIND       PRES   REMARKS
ASPEN          MOCLDY    63  45  51 VRB6      30.28R
BUENA VISTA    PTCLDY    56  47  72 CALM      30.35R
COPPER MTN     PTCLDY    54  39  58 S18       30.60F
BERTHOUD PASS  FAIR      43  34  70 MISG      30.64F
COTTONWOOD PAS NOT AVBL
GUNNISON       CLEAR     54  45  71 N8        30.33S
KREMMLING      PTCLDY    61  41  48 CALM      30.24F
LEADVILLE      PTCLDY    50  44  80 E3        30.45F
MONARCH PASS   PTCLDY    46  41  81 SE5       30.72S
SALIDA         PTCLDY    61  51  69 W7        30.39S
SUNLIGHT       DRIZZLE   55  45  67 CALM      30.53F
WILKERSON PASS PTCLDY    46  41  81 SW9       30.58F
$$

COZ069>075-040700-
...SAN LUIS VALLEY/SANGRE DE CRISTO MOUNTAINS...

CITY           SKY/WX    TMP DP  RH WIND       PRES   REMARKS
ALAMOSA        MOCLDY    55  50  83 E6        30.31S
LA VETA PASS   MOCLDY    52  39  62 MISG      30.49F
SAGUACHE       PTCLDY    57  52  82 SE8       30.36R
$$

COZ035-036-038>040-040700-
...NORTHERN COLORADO FRONT RANGE...

CITY           SKY/WX    TMP DP  RH WIND       PRES   REMARKS
DENVER INTL AP CLEAR     70  53  54 SW14      30.09F
DMNS CITY PARK   N/A     69  55  61 SE8       30.10S
AURORA         PTCLDY    64  55  73 S8        30.12F
FRONT RANGE AP CLEAR     68  55  64 S10       30.11F
ERIE MUNI ARPT CLEAR     67  57  69 W6        30.07F
BOULDER MUN AP CLEAR     70  55  60 CALM      30.08F
CENTENNIAL     PTCLDY    66  52  60 E5        30.13F
BROOMFIELD     CLEAR     68  55  64 W6        30.12F
FORT COLLINS   PTCLDY    70  57  64 E7        30.08F
LONGMONT       PTCLDY    68  58  70 W5        30.08F
$$

COZ041-046-047-076>085-087-088-040700-
...PIKES PEAK/PALMER DIVIDE AND SOUTHERN FOOTHILLS...

CITY           SKY/WX    TMP DP  RH WIND       PRES   REMARKS
COLO. SPRINGS  PTCLDY    62  53  72 SE3       30.20F
A. F. ACADEMY  PTCLDY    56  56  99 N5        30.21F
ELLICOTT       PTCLDY   N/A N/A N/A NW7       30.18F
FALCON         PTCLDY    59  50  72 W7        30.24F
FORT CARSON    PTCLDY    65  50  59 SW8       30.16F
LIMON          PTCLDY    63  59  87 SE13      30.13F
MONUMENT HILL  NOT AVBL
TRINIDAD       MOCLDY    65  54  67 SW12      30.17F
$$

COZ042>045-048>051-090-091-040700-
...NORTHEAST COLORADO...

CITY           SKY/WX    TMP DP  RH WIND       PRES   REMARKS
GREELEY ARPT   PTCLDY    70  61  73 SE9       30.04F
AKRON          PTCLDY    65  60  84 SE15      30.08F
BURLINGTON     MOCLDY    65  60  84 SE9       30.09F
WRAY           MOCLDY    70  58  66 SE6       30.05F
STERLING       PTCLDY    72  59  64 S16         N/A
HOLYOKE        MOCLDY    70  59  68 SE9       30.06S
FORT MORGAN    MOCLDY    68  57  68 E3        30.07F
$$

COZ086-089-092>099-040700-
...SOUTHEAST COLORADO...

CITY           SKY/WX    TMP DP  RH WIND       PRES   REMARKS
PUEBLO         CLEAR     67  56  67 NW13      30.08F
LA JUNTA       PTCLDY    70  55  59 W6        30.05R
LAMAR          PTCLDY    71  60  68 S9        30.03S
SPRINGFIELD      N/A     66  61  84 S14       30.10F
$$


USA.gov is the U.S. government's official web portal to all federal, state and local government web resources and services.